Date String (YYYY-MM-DD hh:mm:ss) UTC,Instrument flags,absolute air pressure of the measurement (hPa),sample flow rate (lpm),inlet stack bypass flow (lpm),air temperature of the measurement (°C),ambient temperature measured by the external sensor (°C),aerosol sample conditioner tube jacket temperature (°C),OPC LED temperature (°C),internal box temperature (°C),relative humidity of the measurement (%),span deviation,mass concentration of particles derived from Lorenz-Mie calculation of OPC scattering (μg/m³),mass concentration of particles derived from Lorenz-Mie calculation of OPC scattering (μg/m³),mass concentration of particles derived from Lorenz-Mie calculation of OPC scattering (μg/m³)
DateTimeUTC,F1_M11,P_M11,Q1_M11,Q2_M11,T1_M11,T2_M11,T3_M11,T4_M11,T5_M11,U1_M11,ZSPAN_M11,X2_M11,X0_M11,X1_M11
2024-01-06 16:00:00,SystemResetWarning,0824.2,4.99,000.00,018.7,018.0,000.0,027.1,020.0,13.5,0000.0,0002.64,0003.60,0002.36
2024-01-06 16:01:00,SystemResetWarning,0824.3,4.99,000.00,018.7,018.0,000.0,027.1,020.0,13.5,0000.0,0002.63,0003.39,0002.35
2024-01-06 16:02:00,SystemResetWarning,0824.3,5.00,000.00,018.7,018.0,000.0,027.1,020.0,13.5,0000.0,0002.65,0003.50,0002.36
2024-01-06 16:03:00,SystemResetWarning,0824.2,5.02,000.00,018.7,018.0,000.0,027.1,020.0,13.4,0000.0,0002.67,0003.84,0002.37
2024-01-06 16:04:00,SystemResetWarning,0824.2,4.98,000.00,018.7,018.0,000.0,027.1,020.0,13.4,0000.0,0002.69,0003.87,0002.39
2024-01-06 16:05:00,SystemResetWarning,0824.2,4.99,000.00,018.7,018.0,000.0,027.1,020.0,13.4,0000.0,0002.68,0003.85,0002.40
2024-01-06 16:07:00,SystemResetWarning,0824.3,5.01,000.00,018.7,018.0,000.0,027.1,020.0,13.4,0000.0,0002.74,0003.71,0002.46
2024-01-06 16:08:00,SystemResetWarning,0824.3,5.01,000.00,018.7,018.0,000.0,027.1,020.0,13.4,0000.0,0002.77,0004.90,0002.48
2024-01-06 16:09:00,SystemResetWarning,0824.3,5.00,000.00,018.7,018.0,000.0,027.1,020.0,13.4,0000.0,0002.80,0006.24,0002.50
2024-01-06 16:10:00,SystemResetWarning,0824.2,5.00,000.00,018.7,018.0,000.0,027.1,020.0,13.4,0000.0,0002.82,0006.26,0002.52
2024-01-06 16:11:00,SystemResetWarning,0824.1,4.99,000.00,018.7,018.0,000.0,027.1,020.0,13.4,0000.0,0002.86,0006.46,0002.54
2024-01-06 16:12:00,SystemResetWarning,0824.1,4.99,000.00,018.7,018.0,000.0,027.1,020.0,13.3,0000.0,0002.87,0006.46,0002.56
2024-01-06 16:13:00,SystemResetWarning,0824.2,5.01,000.00,018.7,018.0,000.0,027.1,020.0,13.3,0000.0,0002.89,0006.51,0002.57
2024-01-06 16:14:00,SystemResetWarning,0824.1,5.00,000.00,018.7,018.0,000.0,027.1,020.0,13.3,0000.0,0002.94,0006.23,0002.59
2024-01-06 16:15:00,SystemResetWarning,0824.1,5.01,000.00,018.7,018.1,000.0,027.1,020.0,13.2,0000.0,0002.99,0006.74,0002.61
2024-01-06 16:16:00,SystemResetWarning,0824.1,5.00,000.00,018.7,018.1,000.0,027.1,020.0,13.2,0000.0,0002.99,0006.98,0002.61
2024-01-06 16:17:00,SystemResetWarning,0824.1,5.00,000.00,018.7,018.1,000.0,027.1,020.0,13.2,0000.0,0002.97,0006.95,0002.62
2024-01-06 16:18:00,SystemResetWarning,0824.2,5.00,000.00,018.7,018.1,000.0,027.1,020.1,13.2,0000.0,0002.96,0006.94,0002.61
2024-01-06 16:19:00,SystemResetWarning,0824.2,5.00,000.00,018.7,018.1,000.0,027.1,020.1,13.1,0000.0,0002.96,0005.82,0002.59
2024-01-06 16:20:00,SystemResetWarning,0824.2,5.00,000.00,018.7,018.1,000.0,027.1,020.1,13.1,0000.0,0002.94,0004.60,0002.59
2024-01-06 16:21:00,SystemResetWarning,0824.1,4.99,000.00,018.7,018.1,000.0,027.1,020.0,13.1,0000.0,0002.92,0004.55,0002.60
2024-01-06 16:22:00,SystemResetWarning,0824.1,5.00,000.00,018.8,018.1,000.0,027.1,020.0,13.1,0000.0,0002.88,0004.33,0002.60
2024-01-06 16:23:00,SystemResetWarning,0824.0,5.01,000.00,018.8,018.1,000.0,027.1,020.0,13.2,0000.0,0002.87,0004.30,0002.60
2024-01-06 16:24:00,SystemResetWarning,0824.0,5.00,000.00,018.8,018.1,000.0,027.1,020.0,13.2,0000.0,0002.87,0004.32,0002.60
2024-01-06 16:25:00,SystemResetWarning,0824.0,4.99,000.00,018.8,018.1,000.0,027.1,020.0,13.2,0000.0,0002.84,0004.44,0002.60
2024-01-06 16:26:00,SystemResetWarning,0824.0,5.01,000.00,018.8,018.1,000.0,027.1,020.0,13.2,0000.0,0002.81,0004.10,0002.58
2024-01-06 16:27:00,SystemResetWarning,0824.0,5.01,000.00,018.8,018.1,000.0,027.1,020.0,13.2,0000.0,0002.79,0003.87,0002.57
2024-01-06 16:28:00,SystemResetWarning,0824.0,5.01,000.00,018.8,018.1,000.0,027.1,020.1,13.2,0000.0,0002.79,0003.92,0002.57
2024-01-06 16:29:00,SystemResetWarning,0824.0,5.00,000.00,018.8,018.1,000.0,027.1,020.1,13.1,0000.0,0002.81,0003.95,0002.57
2024-01-06 16:30:00,SystemResetWarning,0824.0,5.00,000.00,018.8,018.1,000.0,027.1,020.1,13.1,0000.0,0002.81,0003.90,0002.56
2024-01-06 16:31:00,SystemResetWarning,0824.0,5.01,000.00,018.8,018.1,000.0,027.1,020.1,13.1,0000.0,0002.81,0003.91,0002.54
2024-01-06 16:32:00,SystemResetWarning,0823.9,5.01,000.00,018.8,018.1,000.0,027.1,020.1,13.1,0000.0,0002.82,0004.03,0002.54
2024-01-06 16:33:00,SystemResetWarning,0824.0,4.99,000.00,018.8,018.1,000.0,027.1,020.1,13.0,0000.0,0002.84,0004.03,0002.54
2024-01-06 16:34:00,SystemResetWarning,0824.0,5.00,000.00,018.8,018.1,000.0,027.1,020.1,13.1,0000.0,0002.86,0004.08,0002.54
2024-01-06 16:35:00,SystemResetWarning,0823.9,5.00,000.00,018.8,018.1,000.0,027.1,020.1,13.1,0000.0,0002.83,0004.01,0002.52
2024-01-06 16:36:00,SystemResetWarning,0824.0,5.00,000.00,018.8,018.1,000.0,027.1,020.1,13.2,0000.0,0002.83,0003.80,0002.52
2024-01-06 16:37:00,SystemResetWarning,0824.0,5.00,000.00,018.8,018.1,000.0,027.1,020.0,13.2,0000.0,0002.85,0003.70,0002.52
2024-01-06 16:38:00,SystemResetWarning,0823.9,5.00,000.00,018.8,018.1,000.0,027.1,020.0,13.2,0000.0,0002.86,0003.71,0002.53
2024-01-06 16:39:00,SystemResetWarning,0824.0,5.00,000.00,018.8,018.1,000.0,027.1,020.0,13.2,0000.0,0002.86,0003.64,0002.52
2024-01-06 16:40:00,SystemResetWarning,0823.9,5.00,000.00,018.8,018.1,000.0,027.1,020.0,13.2,0000.0,0002.83,0003.53,0002.52
2024-01-06 16:41:00,SystemResetWarning,0824.0,5.00,000.00,018.8,018.1,000.0,027.1,020.0,13.3,0000.0,0002.81,0003.50,0002.51
2024-01-06 16:42:00,SystemResetWarning,0823.9,5.00,000.00,018.8,018.1,000.0,027.1,020.0,13.3,0000.0,0002.81,0003.54,0002.51
2024-01-06 16:43:00,SystemResetWarning,0824.0,5.01,000.00,018.8,018.1,000.0,027.1,020.0,13.4,0000.0,0002.81,0003.58,0002.48
2024-01-06 16:44:00,SystemResetWarning,0823.9,5.00,000.00,018.8,018.1,000.0,027.1,020.0,13.4,0000.0,0002.76,0003.64,0002.45
2024-01-06 16:45:00,SystemResetWarning,0823.9,5.01,000.00,018.8,018.1,000.0,027.1,020.0,13.4,0000.0,0002.72,0003.58,0002.42
2024-01-06 16:46:00,SystemResetWarning,0823.9,4.99,000.00,018.8,018.1,000.0,027.1,020.1,13.4,0000.0,0002.72,0003.61,0002.40
2024-01-06 16:47:00,SystemResetWarning,0823.9,5.00,000.00,018.8,018.1,000.0,027.1,020.0,13.5,0000.0,0002.67,0003.56,0002.37
2024-01-06 16:48:00,SystemResetWarning,0823.9,5.01,000.00,018.8,018.1,000.0,027.1,020.0,13.4,0000.0,0002.64,0003.53,0002.32
2024-01-06 16:49:00,SystemResetWarning,0823.9,4.99,000.00,018.8,018.1,000.0,027.1,020.1,13.5,0000.0,0002.57,0003.45,0002.28
2024-01-06 16:50:00,SystemResetWarning,0823.9,4.99,000.00,018.8,018.1,000.0,027.1,020.1,13.5,0000.0,0002.54,0003.43,0002.26
2024-01-06 16:51:00,SystemResetWarning,0823.9,4.99,000.00,018.8,018.1,000.0,027.1,020.1,13.6,0000.0,0002.51,0003.37,0002.23
2024-01-06 16:52:00,SystemResetWarning,0823.9,5.02,000.00,018.8,018.1,000.0,027.1,020.1,13.6,0000.0,0002.49,0003.33,0002.20
2024-01-06 16:53:00,SystemResetWarning,0823.8,5.02,000.00,018.8,018.2,000.0,027.1,020.1,13.7,0000.0,0002.44,0003.25,0002.17
2024-01-06 16:54:00,SystemResetWarning,0823.8,5.00,000.00,018.8,018.1,000.0,027.1,020.1,13.7,0000.0,0002.38,0003.06,0002.13
2024-01-06 16:55:00,SystemResetWarning,0823.8,4.99,000.00,018.8,018.1,000.0,027.1,020.0,13.7,0000.0,0002.35,0003.41,0002.11
2024-01-06 16:56:00,SystemResetWarning,0823.8,5.00,000.00,018.8,018.1,000.0,027.1,020.0,13.7,0000.0,0002.30,0003.90,0002.09
2024-01-06 16:57:00,SystemResetWarning,0823.8,5.01,000.00,018.8,018.1,000.0,027.1,020.0,13.8,0000.0,0002.25,0003.81,0002.08
2024-01-06 16:58:00,SystemResetWarning,0823.8,5.00,000.00,018.8,018.1,000.0,027.1,020.1,13.8,0000.0,0002.23,0003.77,0002.06
2024-01-06 16:59:00,SystemResetWarning,0823.8,5.00,000.00,018.8,018.1,000.0,027.1,020.0,13.8,0000.0,0002.18,0003.71,0002.05
